| time (UTC) | temp F | wind direction | speed MPH | gust MPH | rain 1hr in | rain 24hr in | rain mn in | humidity % | barometer mb |
| 20260905173035 | 70 | 108 | 1.0 | 4.0 | 0.00 | 0.00 | 0.00 | 56 | 1014.5 |
| 20260905171534 | 69 | 290 | 0.0 | 3.0 | 0.00 | 0.00 | 0.00 | 59 | 1014.4 |
| 20260905170030 | 68 | 238 | 0.0 | 4.0 | 0.00 | 0.00 | 0.00 | 61 | 1014.4 |
| 20260905164527 | 66 | 154 | 0.0 | 4.0 | 0.00 | 0.00 | 0.00 | 64 | 1014.3 |
| 20260905163026 | 65 | 86 | 1.0 | 3.0 | 0.00 | 0.00 | 0.00 | 66 | 1014.4 |
| 20260905161525 | 63 | 109 | 0.0 | 2.0 | 0.00 | 0.00 | 0.00 | 70 | 1014.5 |
| 20260905160020 | 63 | 125 | 0.0 | 1.0 | 0.00 | 0.00 | 0.00 | 71 | 1014.5 |
| 20260905154516 | 61 | 120 | 0.0 | 2.0 | 0.00 | 0.00 | 0.00 | 73 | 1014.4 |
| 20260905153020 | 59 | 101 | 0.0 | 2.0 | 0.00 | 0.00 | 0.00 | 74 | 1014.4 |
| 20260905151522 | 58 | 93 | 0.0 | 1.0 | 0.00 | 0.00 | 0.00 | 75 | 1014.4 |
| 20260905150019 | 57 | 104 | 0.0 | 0.0 | 0.00 | 0.00 | 0.00 | 78 | 1014.4 |
| 20260905144517 | 55 | 95 | 0.0 | 0.0 | 0.00 | 0.00 | 0.00 | 80 | 1014.3 |
| 20260905143012 | 54 | 95 | 0.0 | 0.0 | 0.00 | 0.00 | 0.00 | 80 | 1014.4 |
| 20260905141510 | 54 | 94 | 0.0 | 0.0 | 0.00 | 0.00 | 0.00 | 80 | 1014.2 |
| 20260905140008 | 54 | 95 | 0.0 | 0.0 | 0.00 | 0.00 | 0.00 | 81 | 1014.0 |
| 20260905134506 | 55 | 113 | 0.0 | 0.0 | 0.00 | 0.01 | 0.00 | 82 | 1014.0 |
| 20260905133005 | 55 | 114 | 0.0 | 0.0 | 0.00 | 0.01 | 0.00 | 82 | 1014.0 |
| 20260905131503 | 55 | 114 | 0.0 | 0.0 | 0.00 | 0.01 | 0.00 | 81 | 1013.9 |
| 20260905130100 | 56 | 115 | 0.0 | 0.0 | 0.00 | 0.01 | 0.00 | 79 | 1013.8 |
| 20260905124558 | 56 | 114 | 0.0 | 0.0 | 0.00 | 0.01 | 0.00 | 78 | 1013.7 |
| 20260905123104 | 57 | 112 | 0.0 | 2.0 | 0.00 | 0.01 | 0.00 | 78 | 1013.7 |
| 20260905121555 | 57 | 95 | 0.0 | 2.0 | 0.00 | 0.01 | 0.00 | 77 | 1013.7 |
| 20260905120054 | 57 | 103 | 0.0 | 3.0 | 0.00 | 0.01 | 0.00 | 76 | 1013.9 |
| 20260905114553 | 57 | 107 | 0.0 | 0.0 | 0.00 | 0.01 | 0.00 | 76 | 1013.9 |
| 20260905113053 | 57 | 92 | 0.0 | 3.0 | 0.00 | 0.01 | 0.00 | 75 | 1013.8 |
| 20260905111554 | 57 | 109 | 0.0 | 0.0 | 0.00 | 0.01 | 0.00 | 75 | 1014.1 |
| 20260905110049 | 57 | 91 | 0.0 | 1.0 | 0.00 | 0.01 | 0.00 | 74 | 1014.1 |
| 20260905104603 | 57 | 84 | 0.0 | 2.0 | 0.00 | 0.01 | 0.00 | 74 | 1014.0 |
| 20260905103047 | 57 | 108 | 0.0 | 2.0 | 0.00 | 0.01 | 0.00 | 72 | 1014.1 |
| 20260905101545 | 57 | 98 | 0.0 | 0.0 | 0.00 | 0.01 | 0.00 | 72 | 1014.3 |
| 20260905100045 | 57 | 116 | 0.0 | 0.0 | 0.00 | 0.01 | 0.00 | 71 | 1014.2 |
| 20260905094542 | 58 | 97 | 0.0 | 2.0 | 0.00 | 0.01 | 0.00 | 70 | 1014.2 |
| 20260905093040 | 58 | 113 | 0.0 | 1.0 | 0.00 | 0.01 | 0.00 | 70 | 1014.2 |
| 20260905091539 | 58 | 108 | 0.0 | 2.0 | 0.00 | 0.01 | 0.00 | 70 | 1014.1 |
| 20260905090052 | 59 | 123 | 0.0 | 0.0 | 0.00 | 0.01 | 0.00 | 69 | 1014.1 |
| 20260905084535 | 59 | 117 | 0.0 | 0.0 | 0.00 | 0.01 | 0.00 | 68 | 1014.1 |
| 20260905083033 | 59 | 115 | 0.0 | 3.0 | 0.00 | 0.01 | 0.00 | 67 | 1014.2 |
| 20260905081531 | 60 | 107 | 0.0 | 3.0 | 0.00 | 0.01 | 0.00 | 67 | 1014.1 |
| 20260905080028 | 60 | 109 | 0.0 | 4.0 | 0.00 | 0.01 | 0.00 | 66 | 1014.0 |
| 20260905074526 | 60 | 130 | 0.0 | 4.0 | 0.00 | 0.01 | 0.00 | 66 | 1013.9 |
| 20260905073026 | 61 | 108 | 0.0 | 3.0 | 0.00 | 0.01 | 0.00 | 66 | 1013.9 |
| 20260905071522 | 61 | 108 | 0.0 | 0.0 | 0.00 | 0.01 | 0.00 | 67 | 1013.8 |
| 20260905070019 | 61 | 107 | 0.0 | 0.0 | 0.00 | 0.01 | 0.00 | 66 | 1013.7 |
| 20260905064522 | 62 | 89 | 0.0 | 2.0 | 0.00 | 0.01 | 0.01 | 66 | 1013.6 |
| 20260905063019 | 62 | 102 | 0.0 | 3.0 | 0.00 | 0.01 | 0.01 | 66 | 1013.6 |
| 20260905061529 | 62 | 108 | 0.0 | 0.0 | 0.00 | 0.01 | 0.01 | 67 | 1013.8 |
| 20260905060016 | 63 | 108 | 0.0 | 0.0 | 0.00 | 0.01 | 0.01 | 65 | 1013.7 |
| 20260905054522 | 63 | 114 | 0.0 | 1.0 | 0.00 | 0.01 | 0.01 | 64 | 1013.7 |
| 20260905053019 | 63 | 108 | 0.0 | 1.0 | 0.00 | 0.01 | 0.01 | 64 | 1013.8 |
| 20260905051519 | 64 | 91 | 0.0 | 1.0 | 0.00 | 0.01 | 0.01 | 63 | 1013.8 |
| 20260905050014 | 65 | 101 | 0.0 | 0.0 | 0.00 | 0.01 | 0.01 | 62 | 1013.8 |
| 20260905044517 | 66 | 88 | 0.0 | 0.0 | 0.00 | 0.01 | 0.01 | 60 | 1013.7 |
| 20260905043015 | 66 | 103 | 0.0 | 0.0 | 0.00 | 0.01 | 0.01 | 59 | 1013.5 |
| 20260905041514 | 67 | 162 | 0.0 | 1.0 | 0.00 | 0.01 | 0.01 | 57 | 1013.3 |
| 20260905040012 | 68 | 120 | 0.0 | 2.0 | 0.00 | 0.01 | 0.01 | 53 | 1013.2 |
| 20260905034511 | 68 | 136 | 0.0 | 3.0 | 0.00 | 0.01 | 0.01 | 50 | 1013.0 |
| 20260905033011 | 69 | 134 | 0.0 | 0.0 | 0.00 | 0.01 | 0.01 | 46 | 1012.8 |
| 20260905031511 | 70 | 134 | 0.0 | 0.0 | 0.00 | 0.01 | 0.01 | 44 | 1012.6 |
| 20260905030012 | 71 | 116 | 0.0 | 0.0 | 0.00 | 0.01 | 0.01 | 42 | 1012.6 |
| 20260905024509 | 72 | 131 | 0.0 | 1.0 | 0.00 | 0.01 | 0.01 | 41 | 1012.5 |
| 20260905023008 | 73 | 96 | 0.0 | 2.0 | 0.00 | 0.01 | 0.01 | 41 | 1012.4 |
| 20260905021507 | 74 | 56 | 0.0 | 1.0 | 0.00 | 0.01 | 0.01 | 42 | 1012.4 |
| 20260905020005 | 74 | 206 | 0.0 | 3.0 | 0.00 | 0.01 | 0.01 | 46 | 1012.4 |
| 20260905014505 | 75 | 98 | 1.0 | 6.0 | 0.00 | 0.01 | 0.01 | 45 | 1012.4 |
| 20260905013005 | 77 | 143 | 0.0 | 1.0 | 0.00 | 0.01 | 0.01 | 43 | 1012.3 |
| 20260905011503 | 77 | 124 | 0.0 | 4.0 | 0.00 | 0.01 | 0.01 | 44 | 1012.2 |
| 20260905010002 | 78 | 100 | 0.0 | 8.0 | 0.00 | 0.01 | 0.01 | 44 | 1012.1 |
| 20260905004502 | 78 | 144 | 0.0 | 5.0 | 0.00 | 0.01 | 0.01 | 43 | 1012.1 |
| 20260905003100 | 79 | 91 | 0.0 | 3.0 | 0.00 | 0.01 | 0.01 | 43 | 1012.2 |
| 20260905001606 | 77 | 288 | 1.0 | 5.0 | 0.00 | 0.01 | 0.01 | 45 | 1012.1 |
| 20260905000058 | 77 | 198 | 1.0 | 6.0 | 0.00 | 0.01 | 0.01 | 45 | 1012.3 |
| 20260904234600 | 78 | 144 | 0.0 | 3.0 | 0.00 | 0.01 | 0.01 | 45 | 1012.4 |
| 20260904233058 | 78 | 39 | 0.0 | 3.0 | 0.00 | 0.01 | 0.01 | 45 | 1012.4 |
| 20260904231555 | 76 | 316 | 1.0 | 5.0 | 0.00 | 0.01 | 0.01 | 46 | 1012.5 |
| 20260904230054 | 76 | 265 | 1.0 | 8.0 | 0.00 | 0.01 | 0.01 | 47 | 1012.7 |
| 20260904224554 | 77 | 161 | 2.0 | 4.0 | 0.00 | 0.01 | 0.01 | 46 | 1012.9 |
| 20260904223052 | 77 | 342 | 2.0 | 9.0 | 0.00 | 0.01 | 0.01 | 46 | 1012.8 |
| 20260904221555 | 78 | 129 | 0.0 | 6.0 | 0.00 | 0.01 | 0.01 | 45 | 1012.8 |
| 20260904220049 | 76 | 283 | 0.0 | 6.0 | 0.00 | 0.01 | 0.01 | 47 | 1012.9 |
| 20260904214557 | 77 | 110 | 0.0 | 6.0 | 0.00 | 0.01 | 0.01 | 47 | 1012.9 |
| 20260904213045 | 77 | 108 | 2.0 | 7.0 | 0.00 | 0.01 | 0.01 | 46 | 1013.0 |
| 20260904211544 | 77 | 122 | 0.0 | 5.0 | 0.00 | 0.01 | 0.01 | 48 | 1013.0 |
| 20260904210040 | 75 | 93 | 1.0 | 7.0 | 0.00 | 0.01 | 0.01 | 49 | 1013.0 |
| 20260904204538 | 75 | 148 | 0.0 | 8.0 | 0.00 | 0.01 | 0.01 | 49 | 1013.0 |
| 20260904203037 | 75 | 73 | 0.0 | 4.0 | 0.00 | 0.01 | 0.01 | 53 | 1013.0 |
| 20260904201533 | 73 | 59 | 1.0 | 6.0 | 0.00 | 0.01 | 0.01 | 54 | 1013.2 |
| 20260904200031 | 72 | 83 | 2.0 | 8.0 | 0.00 | 0.01 | 0.01 | 55 | 1013.3 |
| 20260904194533 | 71 | 227 | 0.0 | 2.0 | 0.00 | 0.01 | 0.01 | 57 | 1013.5 |
| 20260904193029 | 71 | 181 | 4.0 | 10.0 | 0.00 | 0.01 | 0.01 | 57 | 1013.6 |
| 20260904191528 | 70 | 125 | 2.0 | 9.0 | 0.00 | 0.01 | 0.01 | 57 | 1013.7 |
| 20260904190025 | 69 | 99 | 4.0 | 9.0 | 0.00 | 0.01 | 0.01 | 60 | 1013.8 |
| 20260904184526 | 68 | 95 | 0.0 | 8.0 | 0.00 | 0.01 | 0.01 | 63 | 1014.1 |
| 20260904183025 | 68 | 129 | 2.0 | 9.0 | 0.00 | 0.01 | 0.01 | 63 | 1014.1 |
| 20260904181524 | 67 | 145 | 6.0 | 11.0 | 0.00 | 0.01 | 0.01 | 65 | 1014.1 |
| 20260904180038 | 67 | 116 | 4.0 | 9.0 | 0.00 | 0.01 | 0.01 | 66 | 1014.2 |
| 20260904174516 | 66 | 92 | 1.0 | 10.0 | 0.00 | 0.01 | 0.01 | 69 | 1014.2 |